TimeCST,TemperatureF,Dew PointF,Humidity,Sea Level PressureIn,VisibilityMPH,Wind Direction,Wind SpeedMPH,Gust SpeedMPH,PrecipitationIn,Events,Conditions,WindDirDegrees,DateUTC
12:15 AM,25.3,13.6,61,30.09,10.0,NW,8.1,-,N/A,,Clear,320,2012-11-26 06:15:00
12:35 AM,24.6,13.8,64,30.09,10.0,NW,6.9,-,N/A,,Clear,320,2012-11-26 06:35:00
12:55 AM,23.9,13.6,65,30.09,10.0,NW,4.6,-,N/A,,Clear,320,2012-11-26 06:55:00
1:15 AM,23.7,14.0,66,30.10,10.0,NW,5.8,-,N/A,,Clear,320,2012-11-26 07:15:00
1:35 AM,22.8,14.0,69,30.11,10.0,NW,4.6,-,N/A,,Clear,310,2012-11-26 07:35:00
1:55 AM,22.8,14.0,69,30.11,10.0,WNW,3.5,-,N/A,,Clear,300,2012-11-26 07:55:00
2:15 AM,23.0,14.0,68,30.11,10.0,WNW,3.5,-,N/A,,Clear,290,2012-11-26 08:15:00
2:35 AM,22.8,14.4,70,30.11,10.0,Calm,Calm,-,N/A,,Clear,0,2012-11-26 08:35:00
2:55 AM,20.7,14.0,75,30.12,10.0,Calm,Calm,-,N/A,,Clear,0,2012-11-26 08:55:00
3:15 AM,21.2,13.8,73,30.12,10.0,Calm,Calm,-,N/A,,Clear,0,2012-11-26 09:15:00
3:35 AM,19.2,13.3,78,30.13,10.0,Calm,Calm,-,N/A,,Clear,0,2012-11-26 09:35:00
3:55 AM,19.4,13.8,79,30.13,10.0,Calm,Calm,-,N/A,,Mostly Cloudy,0,2012-11-26 09:55:00
4:15 AM,20.7,14.5,77,30.14,10.0,Calm,Calm,-,N/A,,Overcast,0,2012-11-26 10:15:00
4:35 AM,22.1,16.5,79,30.14,10.0,Calm,Calm,-,N/A,,Overcast,0,2012-11-26 10:35:00
4:55 AM,22.8,17.1,79,30.14,10.0,Calm,Calm,-,N/A,,Overcast,0,2012-11-26 10:55:00
5:15 AM,23.0,18.0,81,30.14,10.0,Calm,Calm,-,N/A,,Overcast,0,2012-11-26 11:15:00
5:35 AM,23.2,18.5,82,30.16,10.0,SW,3.5,-,N/A,,Overcast,230,2012-11-26 11:35:00
5:55 AM,23.5,18.9,82,30.15,10.0,Calm,Calm,-,N/A,,Overcast,0,2012-11-26 11:55:00
6:15 AM,23.9,19.0,82,30.16,10.0,Calm,Calm,-,N/A,,Overcast,0,2012-11-26 12:15:00
6:35 AM,24.1,19.6,83,30.16,10.0,Calm,Calm,-,N/A,,Overcast,0,2012-11-26 12:35:00
6:55 AM,24.4,19.8,82,30.17,10.0,Calm,Calm,-,N/A,,Overcast,0,2012-11-26 12:55:00
7:15 AM,25.2,19.4,79,30.18,10.0,Calm,Calm,-,N/A,,Overcast,0,2012-11-26 13:15:00
7:35 AM,25.5,19.4,78,30.18,10.0,West,3.5,-,N/A,,Overcast,260,2012-11-26 13:35:00
8:15 AM,26.2,19.9,77,30.19,10.0,West,3.5,-,N/A,,Overcast,260,2012-11-26 14:15:00
8:35 AM,26.6,20.3,77,30.20,10.0,Calm,Calm,-,N/A,,Overcast,0,2012-11-26 14:35:00
8:55 AM,27.1,20.5,76,30.21,10.0,West,4.6,-,N/A,,Overcast,280,2012-11-26 14:55:00
9:15 AM,27.5,21.0,77,30.21,10.0,WNW,4.6,-,N/A,,Overcast,300,2012-11-26 15:15:00
9:35 AM,28.0,20.8,74,30.23,10.0,WNW,4.6,-,N/A,,Overcast,300,2012-11-26 15:35:00
9:55 AM,28.4,21.2,74,30.23,10.0,WNW,4.6,-,N/A,,Overcast,290,2012-11-26 15:55:00
10:15 AM,29.1,21.7,74,30.23,10.0,NW,5.8,-,N/A,,Overcast,310,2012-11-26 16:15:00
10:35 AM,28.9,21.2,73,30.23,10.0,NNW,6.9,-,N/A,,Overcast,330,2012-11-26 16:35:00
10:55 AM,29.1,21.2,72,30.24,10.0,NW,5.8,-,N/A,,Overcast,320,2012-11-26 16:55:00
11:15 AM,29.3,21.2,72,30.24,10.0,NW,4.6,-,N/A,,Overcast,320,2012-11-26 17:15:00
11:35 AM,29.3,21.2,72,30.24,10.0,NNW,6.9,-,N/A,,Overcast,330,2012-11-26 17:35:00
11:55 AM,29.5,20.8,70,30.24,10.0,WNW,6.9,-,N/A,,Overcast,290,2012-11-26 17:55:00
12:15 PM,29.1,20.8,71,30.24,10.0,NNW,10.4,-,N/A,,Overcast,330,2012-11-26 18:15:00
12:35 PM,28.8,18.5,66,30.25,10.0,NNW,9.2,-,N/A,,Overcast,330,2012-11-26 18:35:00
12:55 PM,29.3,18.5,64,30.25,10.0,NW,9.2,-,N/A,,Overcast,320,2012-11-26 18:55:00
1:15 PM,30.2,18.1,61,30.24,10.0,NW,9.2,-,N/A,,Mostly Cloudy,310,2012-11-26 19:15:00
1:35 PM,30.9,17.2,57,30.24,10.0,NW,12.7,-,N/A,,Mostly Cloudy,310,2012-11-26 19:35:00
1:55 PM,30.9,16.3,55,30.24,10.0,NW,11.5,16.1,N/A,,Scattered Clouds,310,2012-11-26 19:55:00
2:15 PM,30.6,15.8,54,30.24,10.0,NW,10.4,-,N/A,,Clear,310,2012-11-26 20:15:00
2:35 PM,30.0,14.5,53,30.25,10.0,NW,11.5,-,N/A,,Scattered Clouds,320,2012-11-26 20:35:00
2:55 PM,28.9,13.1,52,30.26,10.0,WNW,10.4,-,N/A,,Clear,300,2012-11-26 20:55:00
3:15 PM,29.3,11.8,48,30.26,10.0,WNW,9.2,-,N/A,,Clear,300,2012-11-26 21:15:00
3:35 PM,28.8,9.9,45,30.26,10.0,NW,9.2,-,N/A,,Clear,310,2012-11-26 21:35:00
3:55 PM,27.5,9.5,47,30.27,10.0,NW,11.5,-,N/A,,Clear,320,2012-11-26 21:55:00
4:15 PM,26.4,9.1,48,30.27,10.0,NW,9.2,-,N/A,,Clear,310,2012-11-26 22:15:00
4:35 PM,25.7,8.8,49,30.28,10.0,NW,8.1,-,N/A,,Clear,310,2012-11-26 22:35:00
5:15 PM,24.4,9.0,52,30.29,10.0,NW,8.1,-,N/A,,Clear,310,2012-11-26 23:15:00
5:35 PM,23.7,8.6,53,30.30,10.0,NW,8.1,-,N/A,,Clear,310,2012-11-26 23:35:00
5:55 PM,23.0,8.6,54,30.31,10.0,NW,5.8,-,N/A,,Clear,320,2012-11-26 23:55:00
6:15 PM,22.6,8.6,55,30.31,10.0,NW,5.8,-,N/A,,Clear,310,2012-11-27 00:15:00
6:35 PM,21.9,8.6,57,30.33,10.0,WNW,4.6,-,N/A,,Clear,300,2012-11-27 00:35:00
6:55 PM,22.1,8.4,56,30.33,10.0,NW,6.9,-,N/A,,Clear,310,2012-11-27 00:55:00
7:15 PM,21.6,8.6,57,30.34,10.0,NW,6.9,-,N/A,,Clear,310,2012-11-27 01:15:00
7:35 PM,21.0,8.6,59,30.34,10.0,NW,4.6,-,N/A,,Clear,310,2012-11-27 01:35:00
7:55 PM,20.3,8.4,60,30.35,10.0,WNW,4.6,-,N/A,,Clear,300,2012-11-27 01:55:00
8:15 PM,19.2,8.2,62,30.34,10.0,NW,5.8,-,N/A,,Clear,320,2012-11-27 02:15:00
8:35 PM,18.9,8.2,63,30.34,10.0,NW,4.6,-,N/A,,Clear,310,2012-11-27 02:35:00
8:55 PM,18.5,8.1,64,30.35,10.0,NW,3.5,-,N/A,,Clear,310,2012-11-27 02:55:00
9:15 PM,18.7,8.2,64,30.35,10.0,Calm,Calm,-,N/A,,Clear,0,2012-11-27 03:15:00
9:35 PM,18.9,8.4,64,30.35,10.0,Calm,Calm,-,N/A,,Clear,0,2012-11-27 03:35:00
9:55 PM,18.3,8.1,64,30.35,10.0,WNW,3.5,-,N/A,,Clear,290,2012-11-27 03:55:00
10:15 PM,18.0,7.7,64,30.35,10.0,Calm,Calm,-,N/A,,Clear,0,2012-11-27 04:15:00
10:35 PM,17.4,7.7,66,30.35,10.0,WNW,3.5,-,N/A,,Clear,290,2012-11-27 04:35:00
10:55 PM,17.4,7.7,66,30.35,10.0,Calm,Calm,-,N/A,,Clear,0,2012-11-27 04:55:00
11:15 PM,16.7,7.5,67,30.35,10.0,Calm,Calm,-,N/A,,Clear,0,2012-11-27 05:15:00
11:35 PM,16.2,7.0,67,30.36,10.0,Calm,Calm,-,N/A,,Clear,0,2012-11-27 05:35:00
11:55 PM,14.0,7.0,74,30.35,10.0,Calm,Calm,-,N/A,,Clear,0,2012-11-27 05:55:00